星链-11169 [DTC] (STARLINK-11169 [DTC] )

导读

STARLINK-11169是美国SpaceX公司星链星座的成员,于2024年6月19日发射升空,运行于近地轨道。作为第二代星链卫星,它依托相控阵天线与激光星间链路技术,可提供高速卫星互联网服务,支持手机直连与传统终端接入,助力星链全球通信覆盖,推动低轨通信网络部署,服务全球偏远地区网络连接需求。

基本信息
目录编号:
60064
目录名称:
STARLINK-11169
国际标识:
2024-113F
轨道中心:
EARTH
卫星名称:
星链-11169 [DTC]
卫星全名:
星链-11169 [DTC] (STARLINK-11169 [DTC] )
卫星状态:
在轨 (已飞行769 天)
发射日期:
2024-06-19 UTC
国别 :
美国 (US)
星等 :
--
轨道信息
数据来源 国际轨道数据
星历时间: 2026-07-27T14:07:33+0800
18小时前
查看轨道信息
半长轴: 6737.917km
偏心率: 0.0001095
轨道倾角: 53.159°
近地点辐角 70.714°
升交点赤经 223.050°
平近点角 289.399°
近地点: 359.042km
远地点: 360.518km
周期: 91.738分钟
每日圈数: 15.696914
详细信息
固有亮度:
5
最大亮度:
0.3
卫星平台:
Starlink v2.0 mini
覆盖范围:
全球
运营商:
太空探索技术公司
运营商所在国:
美国
制造商(研发单位):
太空探索技术公司
制造商所在国:
美国
使用方式:
暂无
卫星简介
星链(Starlink)计划是由太空探索技术公司(SpaceX)提出的一个巨型低轨卫星互联网星座项目,计划在2019年至2024年间在太空搭建由约1.2万颗卫星组成的“星链”网络,其中1584颗将部署在地球上空550千米处的近地轨道,并从2020年开始工作。该卫星仍在工作。
2D轨道图
3D轨道图
轨道高度分析图
轨道倾角分析图
轨道综合分析图
查看轨道综合分析图